STARLINK-38063

Last updated on Sun Aug 09 2026 00:02:04 GMT+0000 (Coordinated Universal Time)

1 69979U 26159E 26220.54193865 .00126808 00000+0 83770-3 0 9998 2 69979 97.2837 60.5323 0000785 105.5054 254.6298 15.75211742 5700
UTC large
Height (km)
Speed (km/s)
/
Latitude / Longitude
Inclination (degrees)
Orbital Period (minutes)
Azimuth
Elevation
Range (km)
Doppler Factor

Next 0 passes for location: London (51.5072 / 0.1276)

No passes found over London.
STARLINK-38063